Vorticity
15 18 19 15 15 19 19 17 15 13 13 15 11 9 12 11 7 9 11 11 11 13 13 10 7 2 -2 7 9 5 17 27 14 9 17 19 18 14 8 10 13 14 13 8 5 5 9 9 5 8 9 6 12 18 14 13 12 9 12 11 6 6 5 1 1 6 9 5 5 8 7 6 9 7 7 8 8 10 12 12 9 8 12 16 15 13 10
16 18 17 14 16 19 18 15 12 11 12 11 5 7 18 16 7 8 11 12 14 14 11 8 3 -1 2 10 12 14 17 7 1 13 16 13 18 17 10 10 10 11 14 11 8 7 9 8 4 8 10 6 10 16 15 14 11 9 11 11 10 10 8 6 2 2 7 7 2 2 5 6 8 9 9 10 11 13 14 13 9 4 3 6 9 11 11
17 17 14 14 17 18 16 11 11 12 9 6 1 4 19 20 9 9 12 12 15 15 9 5 0 -0 5 9 13 19 11 -3 5 13 5 13 27 14 3 9 6 4 8 7 5 8 11 9 3 4 8 8 9 11 13 15 13 12 11 8 10 13 9 9 8 1 1 5 3 -0 -0 1 2 6 10 10 12 14 13 10 8 5 4 3 3 5 6
17 15 14 16 17 17 14 9 13 14 4 0 -0 2 17 22 10 8 12 14 17 14 6 1 0 3 7 6 10 17 10 1 6 5 -3 9 21 11 3 3 -0 0 3 3 6 9 9 9 9 9 7 7 9 9 9 11 11 15 17 10 8 10 9 9 11 6 1 4 7 6 5 5 3 6 9 7 8 11 14 14 10 6 5 5 6 7 6
17 15 13 14 15 17 13 9 16 13 -2 -4 -1 4 20 24 11 7 12 18 18 8 2 3 4 7 8 2 5 14 13 4 -0 1 2 3 5 11 12 2 -3 1 2 5 11 6 1 5 13 18 15 9 9 9 8 9 9 11 16 15 10 9 8 7 9 9 5 2 3 7 11 10 7 7 7 5 5 6 9 13 13 11 10 7 5 6 5
17 13 10 13 16 16 12 13 17 7 -4 -1 1 7 21 23 15 11 12 19 13 -2 2 9 8 13 11 -0 3 13 12 5 -3 -3 6 5 -0 7 14 7 2 3 3 8 11 3 1 4 5 9 11 9 10 12 10 11 10 9 12 14 13 10 8 7 7 8 8 6 4 5 11 11 6 5 5 3 3 2 1 5 7 8 12 11 6 4 5
16 11 10 15 17 15 15 18 12 -2 -2 4 1 10 23 22 19 16 14 17 3 -10 3 11 8 18 15 -1 2 12 9 4 -0 -4 2 7 3 3 11 12 7 7 7 7 8 5 4 5 3 1 1 1 4 9 12 15 14 11 10 11 14 12 8 6 6 6 6 7 6 5 8 10 6 4 4 4 5 2 -3 0 6 6 4 7 9 7 6
14 11 13 16 19 20 18 14 4 -5 -0 2 2 16 26 22 20 17 15 15 -1 -7 7 8 5 15 13 3 6 9 8 6 2 -0 3 7 6 5 9 11 8 10 8 4 8 10 5 1 3 3 -0 -2 -1 1 7 15 17 14 11 9 11 13 11 8 8 8 7 6 6 3 1 -0 -2 -0 5 7 9 8 -0 -2 9 15 8 3 5 6 5
15 14 18 21 23 21 15 10 4 0 1 2 9 21 22 19 17 9 12 15 -1 -4 5 3 7 15 11 12 14 7 8 9 1 -2 3 6 8 7 6 7 6 7 6 4 5 7 4 2 3 3 2 2 1 -1 2 8 12 14 13 10 10 12 13 11 11 12 9 7 9 8 4 1 -0 2 7 8 9 13 10 3 4 12 13 9 7 7 7
17 19 22 23 20 14 7 4 1 1 1 2 15 25 18 16 11 2 14 16 -4 -6 3 2 10 14 6 14 19 8 8 9 0 -3 0 5 11 12 10 9 5 3 3 1 -0 -0 2 4 4 5 5 3 5 7 8 9 7 8 8 6 7 8 9 10 12 13 13 9 8 8 8 8 8 7 8 8 8 10 12 10 5 3 6 5 3 3 1
19 24 22 16 9 1 -1 -1 0 6 6 5 19 25 15 10 6 3 16 14 -7 -6 5 8 13 7 -2 7 13 10 9 8 3 -0 -2 -1 3 6 11 12 8 5 3 1 1 -0 -1 1 2 4 5 5 5 6 5 2 -1 -1 -1 -3 -0 4 7 8 8 9 13 12 10 8 7 6 6 6 6 6 8 8 7 8 7 6 7 7 8 8 5
25 24 14 8 5 1 -0 2 3 7 7 10 23 25 13 8 8 11 17 11 -2 -5 -2 9 17 8 -0 5 7 6 9 7 5 1 -3 1 4 3 6 8 6 6 5 3 4 2 1 2 3 5 6 7 7 4 1 -1 -2 1 2 2 4 8 13 15 11 8 10 11 10 11 11 9 8 7 6 4 4 4 2 1 3 4 5 7 9 11 11
25 14 5 5 6 4 4 4 2 3 7 17 25 20 10 7 12 17 12 2 6 8 1 7 15 5 4 13 10 6 6 3 3 2 1 7 11 8 9 10 9 9 7 6 6 4 5 6 5 6 7 7 7 5 5 5 6 8 10 11 11 10 12 16 15 12 11 9 9 10 11 14 15 14 15 15 13 12 11 12 15 16 17 15 10 7 10
16 6 4 6 6 4 4 3 3 6 13 21 22 14 8 10 19 21 6 -4 12 25 17 14 12 4 7 14 11 11 11 7 7 10 10 12 12 11 11 10 11 11 9 9 9 7 8 7 5 6 6 6 8 8 9 12 13 14 15 15 13 11 12 15 15 15 13 12 12 11 9 11 14 17 19 18 18 19 18 19 21 22 24 24 18 13 14
4 1 1 4 6 3 2 6 10 15 19 20 17 12 12 18 22 18 8 4 14 19 14 12 11 8 9 10 9 12 13 10 10 11 11 13 12 13 12 10 10 10 8 10 10 9 9 10 11 13 15 16 18 17 18 20 19 19 19 16 15 13 12 13 15 15 14 12 12 12 11 10 9 11 14 13 12 14 15 14 15 15 17 18 16 12 9
-0 0 2 5 3 -2 3 16 20 18 17 14 12 12 14 17 14 11 10 10 10 10 11 10 8 8 9 9 9 10 10 11 13 12 13 15 16 17 17 15 16 16 14 14 15 15 16 17 18 19 19 19 16 14 15 17 18 19 19 15 14 12 10 12 13 14 15 15 13 11 11 11 7 5 7 8 9 10 9 9 11 13 13 13 12 12 10
3 3 5 7 3 1 13 22 17 11 9 8 9 9 9 9 7 4 4 2 2 6 9 8 7 8 9 9 9 9 11 13 15 15 15 16 17 17 16 14 14 14 13 14 15 15 15 14 14 13 12 10 9 8 9 11 12 12 12 11 10 9 9 11 12 13 14 14 14 13 11 11 10 8 7 8 9 8 7 8 10 9 9 9 10 12 13
6 6 8 8 5 12 23 19 8 5 6 7 7 4 2 5 6 3 1 0 3 6 5 6 9 8 10 13 11 9 12 12 12 12 10 9 10 11 11 10 9 9 9 9 10 10 10 9 10 10 9 10 11 11 12 12 11 10 10 10 9 9 10 11 11 11 12 12 13 13 12 12 11 10 10 11 11 11 11 12 12 10 9 9 10 10 11
-1 4 11 10 6 13 22 15 5 3 5 6 7 3 1 5 8 7 7 7 8 8 7 10 11 9 12 15 11 8 10 10 9 9 7 6 7 6 6 7 7 7 10 10 9 10 10 10 10 10 10 10 11 11 11 12 12 11 10 10 10 10 10 11 11 11 11 12 12 12 13 13 12 12 12 12 12 13 12 11 12 12 12 12 12 11 11
-8 -3 5 11 10 8 13 14 7 4 5 7 8 7 5 6 7 7 8 7 7 9 9 10 11 10 12 13 9 7 8 7 7 8 7 6 8 7 8 9 7 7 9 10 10 10 10 10 10 10 10 9 10 10 10 10 10 10 11 11 12 13 12 13 15 15 14 14 15 15 16 15 14 13 14 15 14 14 13 14 15 15 15 14 13 12 12
-2 -1 1 11 13 3 6 15 9 3 6 7 6 8 7 7 8 8 6 7 9 11 11 11 12 12 12 11 9 6 7 8 9 11 10 9 10 10 9 10 10 9 9 9 9 9 10 9 9 10 9 9 9 10 11 13 14 14 16 16 15 15 15 14 13 14 15 15 15 16 16 16 15 15 15 15 15 15 16 16 15 14 15 15 14 14 13
5 6 5 13 15 4 4 12 6 1 6 5 2 5 7 7 9 8 8 11 11 10 11 11 10 10 11 11 9 7 8 10 10 11 11 10 11 11 10 9 11 11 12 12 12 11 12 12 12 12 13 14 16 16 17 18 19 16 16 16 15 13 13 13 11 11 12 13 13 15 15 14 15 15 15 15 16 16 16 14 13 15 16 17 18 19 19
6 7 6 11 13 5 4 7 3 2 5 4 2 5 6 8 10 9 10 11 10 10 11 9 7 7 10 11 11 9 9 9 9 10 11 11 12 14 14 13 12 11 13 14 14 15 16 15 15 16 18 18 18 18 17 16 15 12 10 10 11 11 11 12 13 13 13 13 12 12 12 13 15 16 15 15 14 13 12 11 10 7 4 7 14 16 16
5 7 6 5 6 4 3 5 4 4 4 4 6 6 6 8 11 10 10 10 10 9 9 7 6 8 10 11 12 10 8 9 11 14 14 15 16 16 16 17 15 14 15 14 13 14 15 14 15 15 16 15 13 13 12 10 9 9 6 5 10 15 16 14 14 16 20 21 18 13 10 11 13 15 16 16 15 13 11 10 9 5 2 8 16 16 13
4 7 7 3 3 5 7 6 6 4 3 5 7 6 7 9 9 9 12 12 10 7 6 7 9 9 9 10 10 10 10 11 15 17 17 20 21 17 16 17 15 14 18 18 16 15 14 13 13 12 12 12 13 12 9 7 8 9 7 8 15 20 21 19 17 18 22 24 23 19 14 11 10 11 14 15 16 16 14 14 17 17 14 13 12 12 12
4 5 6 3 2 5 7 7 7 4 3 6 7 6 9 10 6 7 13 13 8 5 6 9 10 8 10 11 11 13 15 16 19 21 20 22 23 21 20 20 16 14 17 18 16 14 14 13 10 7 7 8 9 9 8 6 7 8 11 17 21 20 19 20 20 20 21 21 22 21 17 12 9 10 13 14 16 18 20 19 20 18 11 7 8 11 14
8 5 5 2 -1 1 2 3 5 5 4 7 8 7 9 10 5 6 10 10 6 6 8 10 10 10 12 14 14 16 19 18 18 18 17 17 19 21 24 26 24 21 19 17 14 11 12 14 13 11 11 11 9 9 11 9 9 12 16 20 20 20 25 28 26 22 18 16 19 22 20 17 15 16 19 21 21 20 17 13 12 10 9 11 14 15 14
13 10 6 1 -2 -0 2 2 3 3 5 8 9 8 10 11 7 5 5 6 6 7 9 11 12 13 13 15 16 17 17 14 12 11 10 10 12 15 20 25 30 31 28 25 21 16 13 15 16 18 20 20 16 16 15 13 14 18 19 18 17 20 24 24 20 18 20 23 25 23 20 21 23 22 21 22 20 17 15 15 16 17 16 16 14 11 10
14 13 11 7 2 3 7 7 4 3 4 7 10 9 8 11 10 5 2 5 7 8 11 13 14 14 13 14 15 14 11 8 6 5 5 5 5 7 11 16 26 32 32 30 26 20 16 17 19 21 22 20 18 18 18 18 21 22 19 16 14 12 9 7 9 16 25 28 22 11 7 12 15 15 16 17 17 18 19 19 18 14 11 9 8 7 7
12 13 14 13 9 9 11 10 7 5 4 6 11 10 7 10 12 6 2 6 8 9 13 15 13 12 12 11 12 11 6 2 2 3 3 3 3 4 5 7 14 22 27 27 20 12 10 12 15 18 19 16 14 15 16 17 21 21 18 16 13 9 8 12 17 20 19 18 14 11 11 13 12 12 14 14 13 13 12 10 8 7 5 6 8 9 10
14 13 12 12 11 11 12 10 7 6 4 7 12 11 7 10 11 6 4 7 9 11 15 14 11 10 10 10 10 7 3 -0 1 3 3 3 3 4 4 4 5 11 18 24 22 19 16 13 12 14 14 12 13 13 10 10 14 16 16 15 13 11 11 17 20 15 9 9 12 14 16 18 15 12 11 8 6 5 4 4 6 8 9 11 12 13 13
13 12 11 11 11 12 12 9 7 6 5 8 12 11 8 9 9 5 5 8 9 12 15 13 10 9 9 8 8 5 1 0 2 3 3 4 4 4 4 5 5 5 8 12 17 20 20 19 19 20 19 18 19 17 13 12 12 12 12 12 11 12 13 15 16 14 11 11 11 9 10 12 11 7 5 5 4 5 7 9 11 12 14 13 11 10 8
11 11 12 13 12 11 10 9 7 7 7 10 11 11 9 8 6 5 6 9 10 13 15 13 11 9 7 6 6 4 1 2 2 3 3 4 4 4 5 5 5 5 5 5 7 8 9 12 15 18 19 21 22 20 18 16 14 13 14 13 13 15 15 13 12 13 12 11 9 6 6 6 5 5 6 7 8 10 12 12 12 11 9 8 6 5 5
12 13 13 12 10 8 9 9 8 8 8 10 10 10 9 8 5 5 7 8 10 14 15 12 10 9 6 5 5 4 3 2 2 3 4 5 5 5 5 5 6 6 6 6 6 6 6 6 7 8 8 9 9 9 9 9 9 9 10 10 9 11 10 8 7 7 7 7 7 7 7 7 7 8 10 11 12 13 12 10 8 7 6 6 5 5 6
12 11 10 10 9 8 9 9 8 8 9 10 10 10 9 7 5 5 8 9 11 14 15 12 10 9 6 4 4 4 4 3 3 4 5 6 6 6 5 5 7 7 6 6 7 8 7 6 6 7 7 5 6 7 6 6 7 7 6 7 7 7 7 7 7 7 7 8 8 8 9 10 9 10 11 12 12 10 8 7 6 6 6 6 5 6 8
10 9 9 9 10 10 10 10 9 9 9 10 10 10 10 8 5 4 8 10 12 14 15 13 9 7 6 4 3 3 5 4 4 5 6 5 6 6 5 5 5 6 6 6 6 7 8 6 5 6 7 6 7 7 7 7 7 6 6 7 7 7 8 8 8 8 8 9 9 10 10 10 11 11 12 12 10 7 6 6 6 6 6 7 7 8 9
10 10 10 10 9 9 10 10 9 9 9 10 11 11 10 8 5 4 8 11 12 13 15 13 9 6 6 5 3 3 5 6 6 6 5 4 5 5 4 3 5 5 5 6 5 5 6 7 5 5 6 7 7 7 8 8 7 6 6 7 6 7 8 9 8 10 10 9 9 10 10 11 12 13 11 8 6 4 4 5 7 7 8 8 8 8 9
10 11 11 10 9 9 9 9 9 9 9 10 11 11 11 8 5 4 8 11 12 13 13 12 9 7 6 5 4 4 5 6 6 5 4 3 3 5 4 3 4 5 5 6 6 5 5 6 6 5 5 6 7 7 7 8 9 8 7 7 7 7 7 7 8 8 8 8 9 11 11 12 12 11 10 8 6 5 5 7 8 9 10 10 11 11 11
10 11 10 10 10 9 8 8 8 9 9 10 11 11 11 9 5 4 8 11 11 12 13 12 10 9 7 6 6 5 6 6 5 4 4 3 2 3 3 3 3 4 5 5 6 6 6 7 7 6 6 6 7 6 5 7 10 10 9 9 10 9 8 8 8 7 7 8 10 11 13 13 11 9 9 8 7 7 8 10 11 12 12 11 10 10 10
11 11 10 9 9 9 8 8 8 8 9 10 11 11 11 9 6 5 7 10 11 12 12 11 10 10 9 8 7 6 6 5 3 2 3 3 2 2 3 3 3 4 4 5 5 6 7 8 7 7 7 7 7 6 5 5 6 7 8 9 11 11 11 10 9 8 8 9 10 11 12 12 10 9 9 8 8 11 13 14 13 11 8 6 7 9 9
11 11 9 9 9 9 8 8 9 9 9 10 11 10 10 10 7 6 7 10 11 13 12 10 9 11 11 9 7 6 6 5 3 2 3 3 1 2 4 4 3 4 5 5 5 6 7 8 8 7 8 9 9 8 6 6 5 4 5 6 8 10 11 11 10 9 9 8 9 11 11 10 10 10 9 10 12 14 14 11 7 4 3 6 11 11 9
10 11 10 9 9 9 8 8 9 9 9 10 11 11 10 9 7 6 7 9 11 12 12 11 10 11 11 9 7 5 5 4 3 3 3 3 2 3 5 5 4 5 5 6 7 8 9 8 8 8 8 8 8 7 7 7 7 5 4 5 7 7 9 11 11 11 10 8 9 10 11 10 10 10 11 15 16 13 9 6 4 5 9 13 13 9 6
9 10 11 10 9 9 8 8 8 9 9 9 11 11 10 9 8 7 8 9 10 11 12 12 11 11 11 10 7 5 4 4 3 3 3 3 3 4 5 6 5 5 6 8 10 11 10 10 11 11 10 9 8 8 8 8 9 7 5 5 6 7 7 10 12 12 10 9 10 11 11 11 10 11 14 15 12 7 6 6 7 10 14 13 9 6 6
11 11 11 10 9 9 8 7 8 9 9 10 11 12 10 9 9 8 8 10 11 10 11 11 10 10 11 11 9 7 5 5 5 4 3 3 4 5 6 6 7 8 9 11 11 10 10 11 12 11 9 8 8 9 8 8 9 9 7 6 7 7 7 8 12 13 11 10 10 11 11 10 11 14 14 10 6 6 8 9 10 13 14 10 5 5 6
11 11 11 10 9 9 8 7 8 10 10 10 11 11 9 9 9 9 8 9 9 10 10 10 10 9 11 12 11 10 9 8 7 6 6 5 6 7 6 7 10 13 15 16 14 10 9 10 10 8 9 11 11 10 10 10 10 10 9 8 8 8 7 8 11 14 13 11 11 11 11 11 13 13 9 5 6 9 9 9 11 14 12 6 4 5 6
11 11 10 10 9 9 8 8 9 11 12 11 10 9 8 8 8 8 8 8 7 8 9 10 9 8 9 11 11 12 12 11 11 11 10 10 11 12 11 11 14 17 16 14 11 7 6 7 8 9 10 12 11 10 10 10 9 9 9 8 8 8 8 9 11 14 14 13 13 12 12 12 12 9 6 5 8 10 9 10 13 14 9 4 4 5 6
11 11 11 10 10 9 8 8 9 11 12 11 10 8 8 7 7 8 9 9 7 7 9 10 10 8 8 9 10 11 12 12 13 14 14 14 15 16 15 14 14 15 13 9 6 5 7 8 8 9 10 11 10 10 9 9 9 10 10 10 10 10 9 9 12 15 15 14 14 15 14 12 9 6 5 7 9 9 9 11 14 12 7 4 4 5 5
11 11 11 10 9 9 9 9 9 10 11 11 10 9 8 7 6 9 11 11 9 9 9 10 10 10 8 8 9 10 11 12 13 15 15 15 15 14 13 12 11 10 9 6 4 6 9 10 9 10 11 11 10 10 10 10 10 11 12 12 11 10 9 10 14 16 15 14 15 15 12 8 6 5 5 7 9 8 10 13 14 10 6 4 4 5 6
11 12 12 11 9 8 8 9 9 10 10 10 10 11 10 7 6 9 12 13 11 10 10 10 10 10 9 8 8 10 11 12 14 14 15 15 14 11 10 9 8 6 5 6 6 8 10 10 9 10 11 12 12 12 12 12 12 13 13 14 12 10 10 13 15 16 15 15 15 13 8 6 5 5 5 7 9 9 10 13 13 9 5 3 4 6 7
10 12 12 10 9 8 8 8 9 10 10 10 11 12 11 9 7 7 10 12 12 11 11 11 10 10 10 9 8 10 11 12 13 13 13 13 11 9 8 8 7 5 6 8 9 10 9 8 8 9 11 13 14 13 13 14 15 14 14 13 11 9 12 15 16 15 15 14 12 9 6 5 5 5 6 8 10 10 11 13 13 8 4 3 4 6 7
9 11 11 10 9 9 8 8 9 10 10 11 12 12 11 10 8 7 8 10 11 11 10 10 11 11 10 9 9 10 10 10 10 9 9 9 9 8 8 8 7 7 9 10 10 9 8 7 9 11 13 12 11 11 12 15 16 15 13 11 10 11 14 16 15 15 15 14 10 7 6 6 6 6 7 9 10 10 11 12 11 7 4 3 4 5 6
7 9 10 11 10 9 9 8 8 10 10 10 11 12 11 9 8 8 8 9 10 10 9 9 10 9 9 9 9 8 8 8 8 7 7 7 8 8 7 8 9 10 11 9 8 7 6 7 10 12 11 9 9 10 13 16 17 15 12 9 10 13 15 16 16 15 13 9 6 5 6 6 6 6 8 10 10 10 11 12 11 7 3 3 3 5 6
Height
5499 5501 5504 5506 5508 5511 5514 5517 5520 5523 5526 5529 5533 5537 5540 5542 5545 5548 5552 5555 5558 5561 5565 5569 5573 5576 5580 5582 5585 5588 5590 5591 5592 5595 5599 5603 5607 5609 5612 5615 5618 5621 5624 5626 5628 5632 5635 5639 5642 5646 5649 5652 5655 5659 5662 5664 5666 5669 5672 5676 5678 5680 5682 5685 5687 5690 5693 5695 5697 5699 5701 5703 5704 5706 5708 5710 5712 5713 5714 5716 5718 5719 5720 5721 5723 5724 5726
5501 5503 5506 5508 5511 5513 5516 5519 5523 5525 5529 5532 5535 5540 5544 5546 5548 5551 5554 5558 5561 5564 5568 5572 5575 5578 5581 5583 5586 5589 5590 5591 5594 5598 5601 5605 5608 5611 5613 5617 5620 5623 5626 5628 5631 5633 5636 5638 5642 5645 5649 5651 5655 5658 5661 5664 5666 5669 5672 5674 5677 5679 5681 5683 5685 5687 5690 5692 5694 5696 5699 5701 5703 5704 5706 5708 5710 5711 5712 5714 5716 5717 5718 5719 5721 5722 5724
5503 5506 5508 5511 5513 5516 5519 5522 5525 5528 5531 5535 5538 5541 5545 5548 5551 5554 5557 5560 5564 5567 5570 5574 5577 5580 5583 5585 5588 5590 5591 5593 5596 5600 5603 5607 5610 5613 5616 5619 5622 5624 5627 5631 5633 5636 5638 5641 5643 5645 5649 5651 5654 5657 5660 5663 5666 5669 5671 5674 5676 5678 5680 5682 5684 5686 5688 5691 5693 5696 5698 5700 5702 5703 5704 5706 5708 5709 5710 5712 5713 5715 5716 5717 5719 5720 5722
5506 5509 5511 5513 5516 5519 5522 5525 5528 5531 5534 5538 5541 5544 5548 5551 5554 5557 5559 5563 5566 5569 5573 5576 5579 5581 5584 5586 5589 5591 5593 5595 5598 5602 5605 5608 5611 5615 5618 5620 5623 5625 5628 5631 5634 5637 5640 5643 5646 5647 5649 5652 5654 5657 5660 5663 5665 5668 5670 5673 5675 5677 5679 5681 5683 5686 5689 5691 5694 5696 5698 5699 5701 5702 5703 5705 5706 5708 5709 5710 5711 5713 5714 5715 5716 5718 5720
5509 5511 5514 5516 5518 5521 5524 5528 5531 5533 5537 5540 5543 5546 5550 5553 5556 5560 5563 5565 5568 5572 5575 5578 5580 5582 5585 5588 5591 5593 5595 5597 5600 5604 5607 5609 5612 5615 5618 5621 5624 5626 5629 5631 5634 5637 5640 5643 5646 5648 5650 5652 5655 5657 5660 5662 5665 5667 5669 5671 5673 5676 5678 5680 5682 5685 5687 5689 5691 5693 5695 5697 5699 5700 5701 5703 5704 5706 5707 5708 5709 5710 5712 5713 5714 5715 5717
5512 5514 5516 5518 5521 5524 5527 5530 5533 5536 5540 5543 5545 5548 5552 5555 5558 5562 5565 5568 5571 5575 5578 5580 5582 5585 5587 5590 5592 5595 5597 5600 5603 5605 5608 5611 5614 5616 5619 5622 5624 5627 5630 5632 5635 5638 5640 5642 5645 5648 5651 5653 5655 5657 5660 5662 5664 5667 5669 5670 5673 5675 5677 5678 5680 5683 5685 5687 5689 5691 5693 5694 5696 5697 5699 5700 5702 5703 5705 5706 5707 5708 5709 5711 5711 5713 5714
5515 5517 5519 5521 5524 5527 5530 5534 5537 5540 5543 5545 5547 5550 5553 5557 5560 5563 5567 5570 5574 5577 5579 5582 5585 5587 5590 5592 5595 5597 5599 5602 5605 5607 5610 5613 5615 5618 5621 5623 5625 5627 5630 5633 5636 5639 5641 5644 5646 5648 5651 5653 5655 5657 5660 5662 5664 5666 5668 5669 5672 5674 5675 5677 5679 5681 5683 5685 5687 5689 5690 5692 5694 5695 5696 5698 5699 5700 5702 5703 5704 5705 5707 5708 5709 5710 5711
5518 5520 5523 5525 5527 5530 5534 5537 5540 5543 5545 5547 5550 5552 5555 5559 5562 5565 5569 5573 5576 5579 5582 5584 5586 5589 5592 5594 5596 5599 5601 5604 5607 5609 5612 5614 5616 5619 5621 5624 5626 5628 5631 5633 5636 5639 5642 5644 5646 5648 5651 5653 5655 5657 5659 5661 5663 5665 5667 5669 5670 5672 5674 5675 5677 5679 5681 5682 5684 5686 5688 5690 5691 5692 5694 5695 5696 5698 5699 5700 5701 5702 5703 5705 5706 5707 5708
5522 5524 5527 5529 5531 5534 5538 5541 5544 5546 5548 5551 5553 5555 5558 5562 5565 5568 5572 5575 5579 5582 5585 5586 5588 5591 5594 5596 5598 5601 5603 5606 5609 5611 5613 5615 5617 5619 5621 5624 5627 5629 5631 5633 5636 5638 5641 5643 5646 5647 5649 5651 5653 5655 5657 5659 5661 5663 5665 5667 5669 5670 5672 5673 5675 5677 5678 5680 5682 5683 5685 5687 5688 5689 5691 5692 5693 5695 5696 5697 5698 5700 5701 5702 5703 5704 5706
5526 5528 5530 5532 5535 5538 5542 5544 5547 5549 5551 5553 5556 5558 5561 5564 5567 5570 5574 5577 5582 5585 5587 5588 5590 5593 5596 5598 5600 5603 5605 5607 5610 5612 5614 5616 5618 5620 5622 5625 5627 5629 5632 5634 5636 5638 5640 5642 5644 5646 5648 5650 5652 5654 5656 5658 5660 5662 5663 5665 5666 5668 5669 5671 5673 5674 5675 5677 5679 5681 5682 5684 5685 5686 5687 5689 5690 5692 5693 5694 5695 5697 5698 5699 5700 5701 5703
5530 5532 5534 5537 5539 5542 5545 5547 5549 5551 5554 5556 5558 5561 5563 5566 5569 5572 5576 5580 5584 5587 5588 5590 5593 5595 5597 5599 5602 5604 5606 5608 5611 5613 5615 5617 5619 5621 5623 5625 5627 5629 5631 5634 5636 5638 5640 5642 5643 5645 5647 5649 5651 5653 5655 5657 5659 5660 5662 5663 5665 5666 5667 5668 5669 5671 5672 5674 5676 5677 5679 5680 5681 5683 5685 5686 5687 5689 5690 5691 5692 5693 5694 5696 5697 5698 5699
5533 5536 5538 5541 5543 5546 5548 5550 5552 5554 5556 5557 5559 5563 5566 5569 5571 5575 5578 5582 5586 5588 5589 5592 5594 5597 5599 5601 5603 5605 5607 5609 5611 5613 5615 5617 5619 5621 5623 5625 5627 5628 5630 5633 5635 5637 5639 5641 5643 5644 5646 5648 5649 5651 5653 5654 5656 5658 5659 5661 5662 5663 5665 5666 5667 5668 5669 5670 5672 5674 5675 5676 5679 5681 5682 5683 5684 5685 5687 5688 5689 5690 5691 5692 5693 5694 5695
5538 5540 5543 5545 5547 5550 5552 5553 5555 5556 5558 5559 5562 5565 5569 5571 5574 5577 5581 5584 5586 5589 5591 5594 5597 5599 5601 5602 5604 5606 5608 5610 5612 5614 5616 5617 5619 5621 5622 5624 5626 5628 5630 5632 5634 5636 5638 5639 5641 5643 5644 5646 5647 5648 5650 5651 5653 5655 5656 5658 5659 5660 5662 5663 5664 5665 5666 5667 5669 5670 5672 5674 5676 5677 5678 5679 5680 5682 5683 5684 5685 5686 5687 5688 5689 5690 5691
5542 5545 5547 5549 5551 5553 5555 5556 5557 5559 5560 5562 5565 5569 5572 5574 5577 5580 5584 5586 5589 5591 5594 5597 5599 5601 5602 5604 5605 5607 5609 5611 5613 5615 5617 5618 5620 5621 5622 5624 5625 5627 5629 5631 5633 5635 5636 5638 5639 5641 5642 5643 5645 5646 5647 5648 5650 5651 5653 5654 5656 5657 5658 5660 5661 5662 5663 5665 5666 5667 5669 5670 5673 5674 5675 5675 5676 5678 5679 5680 5681 5682 5683 5684 5685 5686 5687
5547 5549 5551 5553 5554 5556 5558 5559 5560 5562 5564 5566 5569 5572 5575 5578 5581 5584 5587 5589 5591 5594 5596 5598 5601 5603 5604 5605 5607 5608 5610 5612 5614 5616 5617 5618 5620 5621 5622 5623 5624 5626 5628 5629 5631 5633 5634 5636 5637 5639 5640 5641 5643 5644 5645 5646 5647 5648 5649 5651 5652 5654 5655 5657 5658 5659 5661 5662 5663 5665 5666 5667 5670 5671 5671 5672 5673 5674 5676 5677 5678 5679 5680 5681 5682 5683 5684
5551 5553 5554 5556 5557 5559 5561 5562 5564 5566 5568 5571 5573 5576 5579 5581 5584 5586 5589 5591 5593 5596 5598 5600 5602 5603 5605 5606 5608 5610 5611 5613 5615 5616 5617 5618 5619 5620 5621 5622 5623 5624 5626 5627 5629 5631 5633 5634 5636 5637 5638 5639 5641 5642 5643 5644 5645 5646 5647 5648 5649 5651 5652 5654 5655 5656 5658 5659 5661 5662 5663 5665 5666 5667 5667 5669 5670 5671 5673 5674 5675 5677 5677 5678 5679 5680 5681
5555 5556 5558 5560 5561 5563 5564 5566 5568 5570 5572 5575 5578 5580 5582 5584 5587 5589 5591 5593 5595 5597 5600 5601 5603 5604 5606 5607 5609 5610 5612 5613 5615 5616 5617 5618 5619 5620 5620 5621 5622 5623 5624 5626 5627 5629 5631 5633 5634 5635 5636 5638 5639 5640 5641 5642 5643 5644 5645 5646 5647 5648 5650 5651 5653 5654 5655 5657 5658 5659 5660 5661 5663 5664 5665 5666 5667 5668 5670 5671 5672 5673 5674 5675 5676 5677 5678
5559 5560 5562 5563 5565 5566 5568 5570 5572 5574 5576 5578 5581 5583 5584 5587 5589 5590 5592 5594 5596 5598 5600 5602 5604 5605 5607 5608 5609 5611 5612 5613 5614 5615 5616 5618 5619 5620 5621 5621 5622 5623 5624 5625 5626 5628 5629 5631 5632 5633 5634 5636 5637 5638 5639 5640 5641 5642 5643 5644 5645 5646 5647 5649 5650 5651 5652 5654 5655 5656 5657 5659 5660 5661 5662 5663 5664 5666 5667 5667 5669 5670 5671 5672 5673 5674 5674
5562 5564 5565 5566 5568 5569 5571 5573 5575 5577 5579 5581 5583 5585 5587 5588 5590 5592 5593 5595 5597 5598 5600 5602 5604 5606 5607 5609 5610 5611 5612 5613 5614 5615 5617 5618 5619 5620 5620 5621 5622 5623 5624 5625 5626 5627 5628 5629 5630 5631 5633 5634 5635 5636 5637 5638 5639 5640 5641 5642 5643 5644 5645 5646 5647 5648 5649 5651 5652 5653 5655 5656 5657 5658 5659 5661 5662 5662 5663 5664 5666 5667 5668 5669 5669 5670 5671
5565 5567 5568 5569 5571 5573 5574 5576 5578 5580 5582 5584 5585 5587 5589 5591 5592 5594 5595 5597 5599 5600 5602 5603 5605 5606 5608 5610 5611 5612 5613 5614 5615 5616 5617 5618 5619 5620 5620 5621 5622 5623 5623 5624 5625 5626 5627 5628 5629 5630 5631 5631 5632 5634 5635 5636 5637 5638 5639 5640 5641 5641 5642 5643 5644 5645 5646 5648 5649 5650 5652 5653 5654 5655 5656 5658 5659 5659 5661 5662 5663 5664 5665 5665 5666 5667 5668
5568 5570 5571 5572 5574 5575 5577 5579 5581 5583 5584 5586 5588 5589 5591 5593 5595 5596 5598 5599 5601 5602 5603 5605 5606 5608 5609 5611 5612 5613 5614 5615 5616 5616 5617 5618 5619 5619 5620 5620 5621 5622 5622 5623 5624 5624 5625 5626 5627 5628 5629 5629 5630 5632 5633 5634 5635 5636 5637 5637 5638 5639 5640 5641 5641 5642 5644 5645 5646 5647 5648 5649 5650 5652 5654 5655 5656 5657 5658 5659 5660 5661 5662 5663 5663 5664 5665
5571 5572 5573 5574 5576 5578 5580 5581 5583 5585 5587 5588 5589 5591 5593 5595 5596 5598 5600 5601 5602 5604 5605 5606 5607 5609 5610 5612 5612 5613 5614 5615 5616 5616 5617 5618 5618 5619 5619 5619 5620 5620 5621 5621 5622 5623 5623 5624 5625 5626 5627 5628 5629 5630 5631 5632 5633 5634 5635 5635 5636 5637 5638 5638 5639 5640 5641 5642 5643 5645 5646 5647 5648 5650 5651 5652 5654 5655 5656 5657 5658 5659 5659 5660 5661 5661 5662
5573 5575 5576 5577 5579 5580 5582 5583 5585 5587 5588 5589 5591 5592 5594 5595 5597 5599 5600 5602 5603 5604 5606 5607 5608 5609 5611 5612 5613 5614 5615 5615 5616 5616 5617 5617 5617 5617 5618 5618 5618 5619 5619 5620 5620 5621 5622 5623 5624 5625 5626 5627 5627 5629 5629 5630 5631 5632 5633 5634 5635 5635 5636 5636 5637 5638 5639 5640 5641 5642 5644 5645 5647 5648 5650 5651 5652 5653 5654 5655 5656 5657 5658 5659 5659 5660 5660
5576 5577 5579 5580 5581 5582 5584 5585 5587 5589 5590 5591 5593 5594 5595 5597 5598 5600 5601 5602 5604 5605 5607 5608 5609 5610 5611 5612 5613 5614 5615 5615 5615 5616 5616 5616 5616 5616 5616 5617 5617 5617 5618 5618 5619 5620 5621 5622 5622 5623 5624 5625 5626 5628 5629 5629 5630 5631 5632 5633 5633 5633 5634 5634 5635 5636 5636 5637 5639 5640 5642 5644 5645 5647 5648 5649 5650 5651 5652 5653 5654 5655 5656 5657 5658 5658 5659
5578 5579 5581 5582 5583 5585 5586 5588 5589 5590 5592 5593 5594 5596 5597 5598 5600 5601 5602 5604 5605 5606 5608 5609 5610 5611 5612 5613 5614 5614 5615 5615 5615 5615 5616 5616 5616 5616 5616 5616 5616 5616 5617 5617 5618 5619 5620 5621 5622 5623 5624 5625 5626 5627 5628 5629 5630 5630 5631 5631 5631 5632 5632 5633 5633 5634 5635 5635 5637 5638 5640 5642 5643 5645 5646 5647 5648 5649 5650 5651 5653 5654 5655 5656 5657 5657 5658
5579 5581 5583 5584 5585 5587 5588 5589 5591 5592 5593 5595 5596 5597 5598 5600 5601 5602 5604 5605 5606 5607 5609 5610 5611 5612 5613 5613 5614 5614 5615 5615 5615 5616 5616 5616 5616 5616 5616 5616 5616 5616 5616 5617 5618 5619 5620 5621 5622 5623 5624 5625 5625 5626 5627 5628 5629 5629 5630 5630 5630 5630 5631 5631 5631 5632 5633 5634 5635 5637 5639 5640 5642 5643 5644 5645 5646 5648 5649 5650 5652 5653 5654 5655 5656 5656 5657
5580 5582 5584 5585 5587 5588 5589 5591 5592 5593 5594 5596 5597 5598 5599 5601 5602 5603 5605 5606 5607 5608 5609 5610 5611 5612 5613 5614 5614 5615 5615 5616 5616 5616 5616 5616 5616 5616 5616 5616 5615 5615 5616 5617 5618 5619 5620 5621 5622 5623 5623 5624 5625 5626 5627 5627 5628 5629 5629 5630 5630 5630 5630 5630 5630 5631 5632 5633 5635 5636 5638 5639 5641 5642 5643 5644 5646 5647 5648 5650 5651 5652 5653 5654 5655 5656 5656
5580 5582 5584 5586 5587 5589 5590 5592 5593 5594 5595 5596 5598 5599 5600 5602 5603 5604 5605 5607 5608 5609 5610 5611 5612 5613 5614 5615 5615 5616 5616 5617 5617 5618 5618 5618 5618 5618 5617 5616 5616 5616 5616 5617 5617 5619 5620 5621 5622 5622 5623 5624 5625 5625 5626 5627 5628 5629 5629 5629 5629 5630 5630 5630 5630 5631 5632 5633 5635 5636 5638 5639 5640 5642 5643 5644 5645 5647 5648 5649 5651 5652 5653 5654 5654 5655 5656
5579 5582 5584 5586 5587 5589 5591 5592 5593 5594 5595 5597 5598 5600 5601 5603 5604 5605 5606 5607 5608 5609 5610 5611 5612 5613 5614 5615 5616 5617 5618 5618 5619 5619 5619 5619 5619 5619 5619 5618 5617 5617 5617 5617 5618 5619 5620 5621 5622 5622 5623 5624 5625 5626 5627 5627 5628 5629 5629 5630 5630 5630 5631 5631 5632 5632 5633 5634 5635 5637 5638 5639 5641 5642 5643 5644 5646 5647 5648 5650 5651 5652 5653 5654 5654 5655 5655
5579 5581 5583 5585 5587 5589 5590 5592 5593 5594 5596 5597 5599 5601 5602 5603 5604 5605 5607 5608 5609 5610 5611 5612 5613 5614 5615 5616 5617 5618 5619 5620 5620 5621 5621 5621 5621 5621 5621 5620 5619 5619 5618 5619 5619 5620 5621 5622 5623 5623 5623 5624 5625 5626 5627 5628 5629 5630 5630 5630 5631 5631 5632 5633 5633 5633 5634 5635 5637 5638 5639 5640 5642 5643 5644 5645 5646 5648 5649 5650 5651 5652 5653 5653 5654 5654 5655
5579 5581 5583 5584 5586 5588 5590 5591 5593 5594 5596 5598 5600 5601 5602 5603 5604 5606 5607 5609 5610 5611 5612 5613 5614 5614 5616 5617 5618 5619 5620 5621 5622 5622 5623 5623 5623 5623 5623 5623 5622 5622 5621 5621 5621 5622 5623 5623 5624 5624 5625 5626 5626 5627 5628 5629 5629 5630 5631 5631 5632 5633 5634 5635 5635 5635 5635 5637 5638 5639 5640 5641 5642 5643 5645 5646 5647 5648 5649 5650 5651 5652 5652 5653 5653 5654 5654
5579 5581 5582 5584 5586 5588 5590 5591 5593 5594 5596 5598 5600 5601 5602 5603 5605 5606 5608 5609 5610 5612 5613 5614 5615 5615 5616 5618 5619 5621 5622 5623 5623 5624 5624 5624 5625 5625 5625 5625 5625 5625 5624 5624 5624 5625 5625 5625 5625 5626 5627 5628 5628 5628 5629 5629 5630 5631 5632 5633 5633 5634 5635 5635 5636 5636 5637 5638 5639 5640 5641 5642 5643 5644 5645 5646 5647 5648 5649 5650 5651 5651 5652 5652 5653 5653 5654
5578 5580 5582 5584 5586 5588 5590 5591 5593 5594 5596 5598 5599 5601 5602 5604 5605 5607 5608 5609 5611 5612 5613 5615 5616 5616 5617 5619 5620 5621 5623 5624 5624 5625 5625 5626 5626 5627 5627 5627 5628 5628 5627 5627 5627 5627 5627 5628 5628 5628 5629 5630 5630 5630 5630 5631 5632 5633 5635 5635 5635 5636 5636 5637 5637 5638 5639 5640 5641 5642 5642 5643 5644 5645 5646 5646 5647 5648 5649 5650 5650 5651 5652 5652 5652 5653 5653
5578 5580 5582 5584 5585 5587 5589 5591 5592 5594 5596 5598 5599 5600 5602 5604 5605 5607 5608 5609 5611 5612 5613 5615 5616 5617 5618 5619 5621 5622 5623 5624 5625 5626 5627 5627 5628 5628 5629 5629 5629 5630 5630 5630 5630 5630 5630 5630 5631 5631 5632 5632 5632 5632 5633 5633 5634 5635 5636 5637 5637 5637 5638 5638 5639 5640 5640 5641 5642 5643 5643 5644 5644 5645 5646 5647 5647 5648 5649 5650 5650 5651 5651 5652 5652 5652 5652
5578 5580 5581 5583 5585 5587 5589 5590 5592 5594 5595 5597 5599 5600 5602 5603 5605 5607 5608 5609 5611 5612 5613 5615 5616 5618 5619 5620 5621 5623 5624 5625 5626 5627 5628 5628 5629 5630 5630 5630 5631 5631 5632 5632 5632 5632 5632 5633 5633 5633 5634 5634 5634 5634 5635 5635 5636 5637 5638 5638 5639 5639 5639 5640 5640 5641 5641 5642 5643 5643 5644 5644 5645 5645 5646 5647 5648 5648 5649 5649 5650 5650 5651 5651 5651 5651 5651
5577 5579 5581 5583 5585 5586 5588 5590 5592 5593 5595 5597 5598 5600 5602 5603 5605 5606 5608 5609 5611 5612 5613 5615 5616 5618 5619 5620 5621 5623 5624 5626 5627 5628 5629 5629 5630 5631 5631 5632 5632 5632 5633 5633 5634 5634 5634 5634 5635 5635 5635 5636 5636 5636 5637 5637 5638 5638 5639 5639 5640 5640 5640 5641 5641 5642 5642 5643 5643 5644 5644 5644 5645 5646 5646 5647 5648 5648 5649 5649 5650 5650 5650 5651 5651 5651 5651
5577 5579 5581 5582 5584 5586 5588 5590 5591 5593 5595 5596 5598 5600 5601 5603 5604 5606 5608 5609 5611 5612 5613 5614 5616 5618 5619 5621 5622 5623 5624 5626 5627 5628 5629 5630 5631 5631 5632 5633 5633 5633 5634 5634 5635 5635 5635 5636 5636 5637 5637 5637 5637 5638 5638 5638 5639 5639 5639 5640 5640 5641 5641 5642 5642 5642 5643 5643 5643 5644 5644 5644 5645 5645 5646 5646 5647 5647 5648 5649 5649 5650 5650 5650 5650 5650 5650
5576 5578 5580 5582 5584 5585 5587 5589 5591 5592 5594 5596 5597 5599 5601 5602 5604 5606 5607 5609 5610 5612 5613 5614 5616 5617 5619 5620 5622 5623 5624 5625 5627 5628 5629 5630 5631 5632 5632 5633 5634 5634 5634 5635 5635 5636 5636 5636 5637 5637 5638 5638 5638 5638 5639 5639 5639 5640 5640 5640 5641 5641 5642 5642 5642 5642 5643 5643 5643 5644 5644 5644 5645 5645 5646 5646 5646 5647 5647 5648 5649 5649 5649 5650 5650 5650 5650
5575 5577 5579 5581 5583 5585 5586 5588 5590 5591 5593 5595 5596 5598 5600 5602 5603 5605 5607 5608 5610 5611 5613 5614 5616 5617 5619 5620 5622 5623 5624 5625 5626 5627 5629 5630 5631 5632 5632 5633 5634 5634 5635 5635 5636 5636 5636 5637 5637 5638 5638 5638 5639 5639 5639 5640 5640 5640 5641 5641 5641 5642 5642 5642 5642 5643 5643 5643 5644 5644 5644 5645 5645 5645 5645 5646 5646 5647 5648 5648 5649 5649 5649 5650 5650 5650 5650
5574 5576 5578 5580 5582 5583 5585 5587 5588 5590 5592 5594 5595 5597 5599 5601 5603 5604 5606 5608 5609 5611 5612 5614 5615 5617 5618 5620 5621 5623 5624 5625 5626 5627 5628 5629 5630 5631 5632 5633 5634 5634 5635 5635 5636 5636 5636 5637 5637 5638 5638 5638 5639 5639 5640 5640 5640 5641 5641 5642 5642 5642 5642 5642 5642 5643 5643 5644 5644 5644 5644 5644 5645 5645 5645 5646 5647 5648 5648 5649 5649 5649 5650 5650 5650 5650 5649
5573 5575 5577 5578 5580 5582 5584 5586 5587 5589 5591 5592 5594 5596 5598 5600 5602 5604 5605 5607 5609 5610 5612 5613 5614 5616 5617 5619 5620 5622 5623 5624 5625 5627 5628 5629 5630 5631 5632 5632 5633 5634 5634 5635 5635 5636 5636 5636 5637 5637 5638 5638 5639 5639 5639 5640 5640 5641 5641 5642 5642 5642 5642 5642 5642 5642 5643 5643 5643 5643 5643 5644 5644 5644 5645 5646 5647 5648 5648 5649 5649 5649 5649 5649 5649 5649 5648
5571 5573 5575 5577 5579 5581 5583 5584 5586 5588 5590 5591 5593 5595 5597 5599 5601 5603 5605 5606 5608 5609 5611 5612 5613 5615 5616 5618 5619 5621 5622 5623 5625 5626 5627 5628 5629 5630 5631 5632 5632 5633 5633 5634 5634 5635 5635 5636 5636 5637 5637 5638 5638 5638 5639 5639 5640 5640 5641 5641 5641 5641 5641 5642 5642 5642 5642 5642 5642 5643 5643 5643 5644 5644 5645 5646 5647 5648 5648 5649 5649 5648 5648 5648 5647 5647 5647
5569 5571 5573 5575 5577 5579 5581 5583 5585 5586 5588 5590 5592 5594 5596 5598 5600 5602 5604 5605 5607 5608 5610 5611 5612 5614 5615 5617 5618 5619 5621 5622 5623 5625 5626 5627 5628 5629 5630 5631 5631 5632 5632 5633 5633 5634 5634 5635 5635 5636 5636 5637 5637 5638 5638 5638 5639 5639 5640 5640 5641 5641 5641 5641 5641 5641 5641 5642 5642 5642 5642 5643 5643 5644 5645 5646 5647 5647 5648 5647 5647 5647 5646 5646 5646 5646 5646
5567 5570 5572 5574 5576 5577 5579 5581 5583 5585 5587 5589 5591 5594 5596 5598 5599 5601 5603 5604 5605 5607 5608 5609 5611 5612 5613 5615 5616 5618 5619 5621 5622 5623 5624 5626 5627 5628 5629 5629 5630 5630 5631 5632 5632 5633 5633 5634 5634 5635 5635 5636 5636 5637 5637 5637 5638 5638 5639 5639 5640 5640 5640 5640 5641 5641 5641 5641 5641 5641 5642 5642 5643 5644 5645 5645 5646 5646 5646 5646 5646 5645 5645 5645 5645 5645 5644
5565 5567 5570 5572 5574 5576 5578 5580 5582 5584 5586 5589 5591 5593 5594 5596 5597 5599 5600 5602 5603 5605 5606 5607 5609 5610 5612 5613 5615 5616 5618 5619 5620 5621 5623 5624 5625 5626 5627 5628 5628 5629 5630 5630 5631 5631 5632 5633 5633 5633 5634 5634 5635 5635 5636 5636 5637 5637 5638 5638 5638 5639 5639 5639 5640 5640 5640 5640 5640 5641 5641 5642 5642 5643 5644 5645 5645 5645 5645 5645 5644 5644 5644 5644 5644 5644 5643
5563 5565 5568 5570 5572 5574 5576 5579 5581 5583 5585 5587 5589 5590 5591 5593 5594 5596 5598 5599 5601 5603 5604 5606 5607 5609 5610 5612 5613 5614 5616 5617 5618 5620 5621 5622 5623 5624 5625 5626 5627 5628 5629 5629 5629 5630 5630 5631 5632 5632 5633 5633 5634 5634 5634 5635 5635 5636 5636 5637 5637 5638 5638 5638 5639 5639 5639 5639 5639 5640 5640 5641 5642 5643 5643 5644 5644 5644 5644 5643 5643 5643 5643 5643 5643 5643 5642
5561 5563 5565 5568 5570 5572 5575 5577 5579 5581 5583 5585 5586 5587 5589 5591 5593 5595 5597 5598 5600 5601 5603 5605 5606 5607 5609 5610 5612 5613 5614 5615 5616 5618 5619 5620 5621 5623 5624 5625 5626 5627 5627 5627 5627 5628 5629 5630 5630 5631 5631 5632 5632 5633 5633 5633 5634 5634 5635 5635 5636 5636 5637 5637 5637 5637 5638 5638 5638 5639 5640 5640 5641 5642 5642 5642 5643 5642 5642 5642 5642 5642 5642 5642 5642 5641 5641
5559 5561 5563 5566 5568 5571 5573 5575 5577 5579 5581 5582 5584 5586 5588 5590 5592 5594 5596 5597 5599 5601 5602 5603 5605 5606 5607 5609 5610 5611 5612 5614 5615 5616 5617 5618 5620 5621 5622 5624 5625 5625 5626 5626 5626 5627 5627 5628 5629 5629 5630 5631 5631 5631 5631 5632 5632 5633 5633 5634 5634 5635 5635 5635 5636 5636 5636 5637 5638 5638 5639 5640 5640 5641 5641 5641 5641 5641 5641 5641 5641 5641 5641 5641 5640 5640 5640
5556 5559 5561 5564 5567 5569 5571 5573 5575 5577 5579 5581 5583 5585 5587 5590 5591 5593 5594 5596 5598 5599 5600 5602 5603 5604 5606 5607 5608 5610 5611 5612 5613 5614 5616 5617 5618 5620 5621 5622 5623 5623 5623 5624 5624 5625 5626 5627 5627 5628 5628 5629 5629 5630 5630 5630 5630 5631 5632 5632 5633 5633 5633 5634 5634 5635 5635 5636 5637 5637 5638 5638 5639 5639 5639 5639 5639 5640 5640 5640 5639 5639 5639 5639 5639 5639 5638
5554 5556 5559 5562 5564 5566 5568 5570 5573 5575 5577 5580 5582 5584 5586 5588 5590 5591 5593 5594 5595 5597 5598 5600 5602 5603 5605 5606 5607 5608 5610 5611 5612 5613 5615 5616 5617 5619 5620 5621 5621 5621 5621 5622 5623 5624 5625 5625 5626 5626 5627 5627 5628 5628 5629 5629 5629 5629 5630 5630 5631 5631 5632 5632 5633 5633 5634 5635 5635 5636 5637 5637 5637 5637 5638 5638 5638 5638 5638 5638 5638 5638 5638 5638 5637 5637 5637
5551 5554 5556 5559 5561 5563 5566 5568 5571 5573 5576 5578 5581 5583 5584 5586 5587 5589 5590 5591 5593 5595 5596 5598 5600 5602 5603 5604 5606 5607 5608 5609 5611 5612 5613 5615 5616 5618 5618 5618 5618 5619 5620 5621 5622 5622 5623 5624 5624 5625 5625 5626 5626 5627 5627 5627 5628 5628 5628 5629 5629 5630 5630 5631 5631 5632 5633 5633 5634 5635 5635 5636 5636 5636 5636 5636 5636 5636 5636 5636 5636 5636 5636 5636 5635 5635 5635
5548 5551 5554 5556 5558 5561 5564 5566 5569 5571 5574 5576 5579 5581 5582 5584 5585 5586 5588 5589 5591 5593 5594 5596 5597 5599 5601 5602 5603 5605 5606 5608 5609 5611 5612 5613 5614 5615 5616 5616 5616 5618 5619 5619 5619 5620 5621 5622 5623 5624 5624 5624 5625 5625 5625 5626 5626 5626 5626 5627 5627 5628 5628 5629 5629 5630 5631 5632 5633 5633 5634 5634 5634 5634 5634 5634 5634 5634 5634 5634 5634 5634 5634 5634 5633 5633 5633